| time (UTC) | temp C | wind direction | speed KPH | gust KPH | rain 1hr cm | rain 24hr cm | rain mn cm | humidity % | barometer mb |
| 20260507070011 | 12 | 0.0 | 0.0 | 0.00 | 0.00 | 0.00 | 78 | 988.0 | |
| 20260507064746 | 12 | 0.0 | 0.0 | 0.00 | 0.00 | 0.00 | 75 | 988.0 | |
| 20260507063406 | 12 | 0.0 | 0.0 | 0.00 | 0.00 | 0.00 | 75 | 987.0 | |
| 20260507062122 | 12 | 0.0 | 0.0 | 0.00 | 0.00 | 0.00 | 74 | 986.6 | |
| 20260507054223 | 12 | 0.0 | 0.0 | 0.00 | 0.00 | 0.00 | 76 | 986.7 | |
| 20260507050137 | 11 | 0.0 | 0.0 | 0.00 | 0.00 | 0.00 | 76 | 987.0 | |
| 20260507044737 | 12 | 0.0 | 0.0 | 0.00 | 0.00 | 0.00 | 76 | 987.0 | |
| 20260507043322 | 10 | 0.0 | 0.0 | 0.00 | 0.00 | 0.00 | 77 | 986.9 | |
| 20260507035322 | 9 | 0.0 | 0.0 | 0.00 | 0.00 | 0.00 | 78 | 986.9 | |
| 20260507033851 | 10 | 0.0 | 0.0 | 0.00 | 0.00 | 0.00 | 77 | 986.7 | |
| 20260507032442 | 8 | 0.0 | 0.0 | 0.00 | 0.00 | 0.00 | 78 | 986.9 | |
| 20260507031112 | 10 | 0.0 | 0.0 | 0.00 | 0.00 | 0.00 | 78 | 986.9 | |
| 20260507023314 | 8 | 0.0 | 0.0 | 0.00 | 0.00 | 0.00 | 77 | 986.6 | |
| 20260507021832 | 8 | 0.0 | 0.0 | 0.00 | 0.00 | 0.00 | 77 | 986.6 | |
| 20260507013723 | 10 | 0.0 | 0.0 | 0.00 | 0.00 | 0.00 | 76 | 986.6 | |
| 20260507012318 | 8 | 0.0 | 0.0 | 0.00 | 0.00 | 0.00 | 76 | 986.6 | |
| 20260507005717 | 8 | 0.0 | 0.0 | 0.00 | 0.00 | 0.00 | 75 | 986.6 | |
| 20260507004503 | 8 | 0.0 | 0.0 | 0.00 | 0.00 | 0.00 | 75 | 986.5 | |
| 20260507001919 | 10 | 0.0 | 0.0 | 0.00 | 0.00 | 0.00 | 74 | 986.6 | |
| 20260507000457 | 8 | 0.0 | 0.0 | 0.00 | 0.00 | 0.00 | 73 | 986.7 | |
| 20260506235032 | 9 | 0.0 | 0.0 | 0.00 | 0.00 | 0.00 | 73 | 986.6 | |
| 20260506233716 | 9 | 0.0 | 0.0 | 0.00 | 0.00 | 0.00 | 72 | 986.7 | |
| 20260506232259 | 9 | 0.0 | 0.0 | 0.00 | 0.00 | 0.00 | 72 | 986.7 | |
| 20260506230952 | 9 | 0.0 | 0.0 | 0.00 | 0.00 | 0.00 | 72 | 986.7 | |
| 20260506221735 | 10 | 0.0 | 0.0 | 0.00 | 0.00 | 0.00 | 71 | 986.5 | |
| 20260506220352 | 11 | 0.0 | 0.0 | 0.00 | 0.00 | 0.00 | 70 | 986.4 | |
| 20260506215042 | 10 | 0.0 | 0.0 | 0.00 | 0.00 | 0.00 | 70 | 986.5 | |
| 20260506213642 | 12 | 0.0 | 0.0 | 0.00 | 0.00 | 0.00 | 69 | 986.4 | |
| 20260506212157 | 11 | 0.0 | 0.0 | 0.00 | 0.00 | 0.00 | 69 | 986.2 | |
| 20260506204455 | 11 | 0.0 | 0.0 | 0.00 | 0.00 | 0.00 | 68 | 985.9 | |
| 20260506203127 | 11 | 0.0 | 0.0 | 0.00 | 0.00 | 0.00 | 68 | 986.0 | |
| 20260506201650 | 12 | 0.0 | 0.0 | 0.00 | 0.00 | 0.00 | 67 | 986.2 | |
| 20260506200221 | 13 | 0.0 | 0.0 | 0.00 | 0.00 | 0.00 | 66 | 986.2 | |
| 20260506193735 | 13 | 0.0 | 0.0 | 0.00 | 0.00 | 0.00 | 66 | 986.4 | |
| 20260506190820 | 13 | 0.0 | 0.0 | 0.00 | 0.00 | 0.00 | 65 | 986.0 | |
| 20260506185607 | 15 | 0.0 | 0.0 | 0.00 | 0.00 | 0.00 | 65 | 985.6 | |
| 20260506181648 | 16 | 0.0 | 0.0 | 0.00 | 0.00 | 0.00 | 63 | 985.0 | |
| 20260506180432 | 13 | 0.0 | 0.0 | 0.00 | 0.00 | 0.00 | 63 | 985.0 | |
| 20260506174933 | 14 | 0.0 | 0.0 | 0.00 | 0.00 | 0.00 | 62 | 985.1 | |
| 20260506172523 | 14 | 0.0 | 0.0 | 0.00 | 0.00 | 0.00 | 62 | 985.1 | |
| 20260506171251 | 16 | 0.0 | 0.0 | 0.00 | 0.00 | 0.00 | 61 | 985.2 | |
| 20260506165813 | 14 | 0.0 | 0.0 | 0.00 | 0.00 | 0.00 | 61 | 985.0 | |
| 20260506164337 | 15 | 0.0 | 0.0 | 0.00 | 0.00 | 0.00 | 61 | 985.1 | |
| 20260506162953 | 17 | 0.0 | 0.0 | 0.00 | 0.00 | 0.00 | 60 | 985.3 | |
| 20260506161537 | 15 | 0.0 | 0.0 | 0.00 | 0.00 | 0.00 | 60 | 985.4 | |
| 20260506154942 | 17 | 0.0 | 0.0 | 0.00 | 0.00 | 0.00 | 61 | 985.5 | |
| 20260506152237 | 16 | 0.0 | 0.0 | 0.00 | 0.00 | 0.00 | 60 | 985.9 | |
| 20260506150817 | 18 | 0.0 | 0.0 | 0.00 | 0.00 | 0.00 | 59 | 985.9 | |
| 20260506145404 | 16 | 0.0 | 0.0 | 0.00 | 0.00 | 0.00 | 57 | 986.5 | |
| 20260506144107 | 16 | 0.0 | 0.0 | 0.00 | 0.00 | 0.00 | 54 | 986.6 | |
| 20260506142837 | 17 | 0.0 | 0.0 | 0.00 | 0.00 | 0.00 | 51 | 987.2 | |
| 20260506141442 | 21 | 0.0 | 0.0 | 0.00 | 0.00 | 0.00 | 47 | 986.4 | |
| 20260506134910 | 20 | 0.0 | 0.0 | 0.00 | 0.00 | 0.00 | 44 | 986.2 | |
| 20260506130949 | 21 | 0.0 | 0.0 | 0.00 | 0.00 | 0.00 | 43 | 986.6 | |
| 20260506125633 | 22 | 0.0 | 0.0 | 0.00 | 0.00 | 0.00 | 44 | 986.8 | |
| 20260506115118 | 28 | 0.0 | 0.0 | 0.00 | 0.00 | 0.00 | 45 | 987.5 | |
| 20260506113627 | 20 | 0.0 | 0.0 | 0.00 | 0.00 | 0.00 | 46 | 987.6 | |
| 20260506112207 | 20 | 0.0 | 0.0 | 0.00 | 0.00 | 0.00 | 47 | 987.9 | |
| 20260506104028 | 18 | 0.0 | 0.0 | 0.00 | 0.00 | 0.00 | 49 | 988.2 | |
| 20260506101357 | 17 | 0.0 | 0.0 | 0.00 | 0.00 | 0.00 | 50 | 988.6 | |
| 20260506100058 | 30 | 0.0 | 0.0 | 0.00 | 0.00 | 0.00 | 51 | 988.7 | |
| 20260506093222 | 16 | 0.0 | 0.0 | 0.00 | 0.00 | 0.00 | 52 | 988.5 | |
| 20260506091755 | 16 | 0.0 | 0.0 | 0.00 | 0.00 | 0.00 | 53 | 988.5 | |
| 20260506090418 | 21 | 0.0 | 0.0 | 0.00 | 0.00 | 0.00 | 53 | 988.6 | |
| 20260506082105 | 18 | 0.0 | 0.0 | 0.00 | 0.00 | 0.00 | 56 | 988.8 | |
| 20260506072632 | 13 | 0.0 | 0.0 | 0.00 | 0.00 | 0.00 | 59 | 989.3 | |
| 20260506071339 | 12 | 0.0 | 0.0 | 0.00 | 0.00 | 0.00 | 59 | 989.3 |